Storm Events Database

Event Details

Event Hail
Magnitude 0.75 in.
State ALABAMA
County/Area LEE
WFO BMX
Report Source Broadcast Media
NCDC Data Source CSV
Begin Date 2010-04-24 19:24:00.0 CST-6
Begin Location 1WNW SMITHS STATION
Begin Lat/Lon 32.54/-85.1
End Date 2010-04-24 19:24:00.0 CST-6
Deaths Direct/Indirect 0/0 (fatality details below, when available...)
Injuries Direct/Indirect 0/0
Property Damage 0.00K
Crop Damage 0.00K
Episode Narrative A deepening storm system and associated cold front brought widespread severe thunderstorms, including at least 8 tornadoes, to central Alabama.
Event Narrative


     ‚Äč



All events for this episode:

Location County/Zone St. Date Time T.Z. Type Mag Dth Inj PrD CrD
Totals: 0 2 1.497M 0.00K
CAWATCHEE LEE CO. AL 04/24/2010 03:44 CST-6 Hail 0.88 in. 0 0 0.00K 0.00K
WHITE RANDOLPH CO. AL 04/24/2010 04:54 CST-6 Hail 0.75 in. 0 0 0.00K 0.00K
SNEAD BLOUNT CO. AL 04/24/2010 06:20 CST-6 Hail 0.75 in. 0 0 0.00K 0.00K
MOLLOY LAMAR CO. AL 04/24/2010 06:30 CST-6 Hail 1.00 in. 0 0 0.00K 0.00K
AURORA ETOWAH CO. AL 04/24/2010 06:45 CST-6 Hail 1.00 in. 0 0 0.00K 0.00K
PALMETTO PICKENS CO. AL 04/24/2010 06:55 CST-6 Hail 1.00 in. 0 0 0.00K 0.00K
ALICEVILLE PICKENS CO. AL 04/24/2010 07:05 CST-6 Thunderstorm Wind 50 kts. EG 0 0 5.00K 0.00K
BANKSTON FAYETTE CO. AL 04/24/2010 07:20 CST-6 Hail 0.75 in. 0 0 0.00K 0.00K
BANKSTON FAYETTE CO. AL 04/24/2010 07:20 CST-6 Thunderstorm Wind 50 kts. EG 0 0 20.00K 0.00K
HOPKINS JEFFERSON CO. AL 04/24/2010 07:25 CST-6 Hail 0.75 in. 0 0 0.00K 0.00K
CORDOVA WALKER CO. AL 04/24/2010 08:05 CST-6 Hail 0.88 in. 0 0 0.00K 0.00K
CUBA SUMTER CO. AL 04/24/2010 09:40 CST-6 Thunderstorm Wind 70 kts. EG 0 0 100.00K 0.00K
SILOAM SUMTER CO. AL 04/24/2010 09:44 CST-6 Tornado EF0 0 0 0.00K 0.00K
SHORTLEAF MARENGO CO. AL 04/24/2010 10:05 CST-6 Thunderstorm Wind 62 kts. MG 0 0 5.00K 0.00K
DEMOPOLIS MARENGO CO. AL 04/24/2010 10:19 CST-6 Tornado EF1 0 0 110.00K 0.00K
FORKLAND GREENE CO. AL 04/24/2010 10:22 CST-6 Tornado EF1 0 2 50.00K 0.00K
OAK GROVE HALE CO. AL 04/24/2010 10:25 CST-6 Thunderstorm Wind 50 kts. EG 0 0 1.00K 0.00K
ARCOLA HALE CO. AL 04/24/2010 10:32 CST-6 Tornado EF1 0 0 10.00K 0.00K
GREENSBORO HALE CO. AL 04/24/2010 10:50 CST-6 Tornado EF0 0 0 60.00K 0.00K
VANCE TUSCALOOSA CO. AL 04/24/2010 12:51 CST-6 Hail 0.88 in. 0 0 0.00K 0.00K
CREWS LAMAR CO. AL 04/24/2010 14:05 CST-6 Thunderstorm Wind 50 kts. EG 0 0 5.00K 0.00K
HAMILTON MARION CO. AL 04/24/2010 14:20 CST-6 Thunderstorm Wind 50 kts. EG 0 0 2.00K 0.00K
CENTER PT JEFFERSON CO. AL 04/24/2010 14:30 CST-6 Flash Flood 0 0 5.00K 0.00K
PEBBLE WINSTON CO. AL 04/24/2010 14:49 CST-6 Thunderstorm Wind 50 kts. EG 0 0 1.00K 0.00K
HAMILTON ARPT MARION CO. AL 04/24/2010 15:03 CST-6 Flash Flood 0 0 5.00K 0.00K
BEAVERTON LAMAR CO. AL 04/24/2010 15:20 CST-6 Hail 1.00 in. 0 0 0.00K 0.00K
WINFIELD MARION CO. AL 04/24/2010 15:27 CST-6 Tornado EF0 0 0 105.00K 0.00K
GOLDMINE MARION CO. AL 04/24/2010 15:40 CST-6 Thunderstorm Wind 50 kts. EG 0 0 1.00K 0.00K
CREWS LAMAR CO. AL 04/24/2010 15:45 CST-6 Flash Flood 0 0 10.00K 0.00K
ETHELSVILLE PICKENS CO. AL 04/24/2010 15:45 CST-6 Hail 1.75 in. 0 0 10.00K 0.00K
HALEYVILLE WINSTON CO. AL 04/24/2010 16:00 CST-6 Flash Flood 0 0 5.00K 0.00K
MELROSE PICKENS CO. AL 04/24/2010 16:00 CST-6 Hail 0.88 in. 0 0 0.00K 0.00K
BANKSTON FAYETTE CO. AL 04/24/2010 19:06 CST-6 Tornado EF1 0 0 77.00K 0.00K
ALTA FAYETTE CO. AL 04/24/2010 19:21 CST-6 Tornado EF1 0 0 20.00K 0.00K
SMITHS STATION LEE CO. AL 04/24/2010 19:24 CST-6 Hail 0.75 in. 0 0 0.00K 0.00K
CARONA WALKER CO. AL 04/24/2010 19:27 CST-6 Tornado EF1 0 0 55.00K 0.00K
MC LARTY BLOUNT CO. AL 04/24/2010 20:59 CST-6 Tornado EF1 0 0 50.00K 0.00K
BRADLEYTOWN WALKER CO. AL 04/24/2010 21:01 CST-6 Tornado EF3 0 0 598.00K 0.00K
NATHAN WINSTON CO. AL 04/24/2010 21:06 CST-6 Hail 0.75 in. 0 0 0.00K 0.00K
CALUMET WALKER CO. AL 04/24/2010 21:07 CST-6 Hail 1.00 in. 0 0 0.00K 0.00K
CORNER JEFFERSON CO. AL 04/24/2010 21:37 CST-6 Tornado EF1 0 0 50.00K 0.00K
HAYDEN BLOUNT CO. AL 04/24/2010 21:49 CST-6 Tornado EF1 0 0 10.00K 0.00K
GALLANT ETOWAH CO. AL 04/24/2010 22:42 CST-6 Thunderstorm Wind 50 kts. EG 0 0 2.00K 0.00K
RIVER BEND BIBB CO. AL 04/24/2010 22:45 CST-6 Thunderstorm Wind 70 kts. EG 0 0 20.00K 0.00K
EUFAULA BARBOUR CO. AL 04/24/2010 23:30 CST-6 Lightning 0 0 100.00K 0.00K
HOKES BLUFF ETOWAH CO. AL 04/24/2010 23:45 CST-6 Thunderstorm Wind 50 kts. EG 0 0 2.00K 0.00K
CENTRE CHEROKEE CO. AL 04/24/2010 23:53 CST-6 Thunderstorm Wind 50 kts. EG 0 0 3.00K 0.00K
Totals: 0 2 1.497M 0.00K